Time,TemperatureF,DewpointF,PressureIn,WindDirection,WindDirectionDegrees,WindSpeedMPH,WindSpeedGustMPH,Humidity,HourlyPrecipIn,Conditions,Clouds,dailyrainin,SolarRadiationWatts/m^2,SoftwareType,DateUTC
2013-01-20 00:02:00,33.8,16.0,29.85,West,280,15.9,15.9,49,0.00,,,0.00,0,TxWx,2013-01-20 06:02:00,
2013-01-20 00:07:00,33.2,13.0,29.87,NW,304,15.0,15.0,46,0.00,,,0.00,0,TxWx,2013-01-20 06:07:00,
2013-01-20 00:12:00,32.2,11.0,29.88,NNW,337,18.0,18.0,43,0.00,,,0.00,0,TxWx,2013-01-20 06:12:00,
2013-01-20 00:17:00,31.6,11.0,29.88,NW,318,7.5,8.4,43,0.00,,,0.00,0,TxWx,2013-01-20 06:17:00,
2013-01-20 00:23:00,31.3,11.0,29.89,West,281,16.2,16.2,45,0.00,,,0.00,0,TxWx,2013-01-20 06:23:00,
2013-01-20 00:28:00,30.9,11.0,29.89,NNW,330,16.5,24.9,44,0.00,,,0.00,0,TxWx,2013-01-20 06:28:00,
2013-01-20 00:33:00,30.5,8.0,29.90,WSW,248,9.0,9.0,41,0.00,,,0.00,0,TxWx,2013-01-20 06:33:00,
2013-01-20 00:38:00,30.1,9.0,29.90,WNW,287,27.6,27.6,42,0.00,,,0.00,0,TxWx,2013-01-20 06:38:00,
2013-01-20 00:43:00,29.8,9.0,29.91,West,272,15.0,15.0,43,0.00,,,0.00,0,TxWx,2013-01-20 06:43:00,
2013-01-20 00:48:00,29.3,7.0,29.92,WSW,248,9.0,9.0,40,0.00,,,0.00,0,TxWx,2013-01-20 06:48:00,
2013-01-20 00:54:00,29.0,7.0,29.92,NW,307,25.5,27.3,41,0.00,,,0.00,0,TxWx,2013-01-20 06:54:00,
2013-01-20 00:59:00,28.5,7.0,29.93,NW,320,9.3,9.3,41,0.00,,,0.00,0,TxWx,2013-01-20 06:59:00,
2013-01-20 01:04:00,28.0,6.0,29.93,West,271,18.9,21.3,40,0.00,,,0.00,0,TxWx,2013-01-20 07:04:00,
2013-01-20 01:09:00,27.9,6.0,29.94,NW,311,21.9,21.9,41,0.00,,,0.00,0,TxWx,2013-01-20 07:09:00,
2013-01-20 01:14:00,27.4,6.0,29.95,NW,316,14.1,16.8,42,0.00,,,0.00,0,TxWx,2013-01-20 07:14:00,
2013-01-20 01:19:00,26.9,6.0,29.95,WNW,293,10.2,10.8,43,0.00,,,0.00,0,TxWx,2013-01-20 07:19:00,
2013-01-20 01:24:00,26.4,6.0,29.96,WNW,293,14.7,19.8,43,0.00,,,0.00,0,TxWx,2013-01-20 07:24:00,
2013-01-20 01:30:00,26.3,6.0,29.96,WNW,291,8.7,9.0,44,0.00,,,0.00,0,TxWx,2013-01-20 07:30:00,
2013-01-20 01:35:00,25.7,7.0,29.97,NW,317,20.4,20.4,45,0.00,,,0.00,0,TxWx,2013-01-20 07:35:00,
2013-01-20 01:40:00,25.4,6.0,29.97,WNW,283,11.7,14.1,47,0.00,,,0.00,0,TxWx,2013-01-20 07:40:00,
2013-01-20 01:45:00,25.4,6.0,29.98,WNW,294,21.9,21.9,47,0.00,,,0.00,0,TxWx,2013-01-20 07:45:00,
2013-01-20 01:50:00,25.3,7.0,29.98,NW,313,8.4,8.4,47,0.00,,,0.00,0,TxWx,2013-01-20 07:50:00,
2013-01-20 01:55:00,24.8,7.0,29.99,West,261,14.7,18.3,48,0.00,,,0.00,0,TxWx,2013-01-20 07:55:00,
2013-01-20 02:00:00,24.6,7.0,30.00,NW,311,13.8,13.8,48,0.00,,,0.00,0,TxWx,2013-01-20 08:00:00,
2013-01-20 02:06:00,24.4,6.0,30.00,NW,308,17.1,17.7,48,0.00,,,0.00,0,TxWx,2013-01-20 08:06:00,
2013-01-20 02:11:00,24.3,6.0,30.00,WNW,298,9.3,9.6,48,0.00,,,0.00,0,TxWx,2013-01-20 08:11:00,
2013-01-20 02:16:00,24.1,6.0,30.00,West,275,15.3,16.5,49,0.00,,,0.00,0,TxWx,2013-01-20 08:16:00,
2013-01-20 02:21:00,24.1,7.0,30.01,WNW,295,10.8,10.8,49,0.00,,,0.00,0,TxWx,2013-01-20 08:21:00,
2013-01-20 02:26:00,23.7,7.0,30.02,West,276,9.9,11.1,51,0.00,,,0.00,0,TxWx,2013-01-20 08:26:00,
2013-01-20 02:32:00,23.1,6.0,30.02,NW,307,11.1,12.0,51,0.00,,,0.00,0,TxWx,2013-01-20 08:32:00,
2013-01-20 02:37:00,22.7,7.0,30.02,West,275,11.7,15.0,51,0.00,,,0.00,0,TxWx,2013-01-20 08:37:00,
2013-01-20 02:42:00,22.3,5.0,30.02,NW,317,8.7,8.7,50,0.00,,,0.00,0,TxWx,2013-01-20 08:42:00,
2013-01-20 02:47:00,22.2,5.0,30.02,WNW,282,8.4,9.3,49,0.00,,,0.00,0,TxWx,2013-01-20 08:47:00,
2013-01-20 02:52:00,22.0,5.0,30.03,NNW,333,7.8,7.8,49,0.00,,,0.00,0,TxWx,2013-01-20 08:52:00,
2013-01-20 02:57:00,21.9,5.0,30.03,NNW,330,6.6,7.2,49,0.00,,,0.00,0,TxWx,2013-01-20 08:57:00,
2013-01-20 03:03:00,21.7,5.0,30.04,WNW,303,8.7,9.0,49,0.00,,,0.00,0,TxWx,2013-01-20 09:03:00,
2013-01-20 03:08:00,21.7,5.0,30.05,NNW,327,7.5,8.1,49,0.00,,,0.00,0,TxWx,2013-01-20 09:08:00,
2013-01-20 03:13:00,21.3,4.0,30.05,NW,312,17.7,19.2,49,0.00,,,0.00,0,TxWx,2013-01-20 09:13:00,
2013-01-20 03:18:00,21.2,4.0,30.05,WNW,293,13.2,13.8,49,0.00,,,0.00,0,TxWx,2013-01-20 09:18:00,
2013-01-20 03:24:00,21.0,4.0,30.06,WNW,287,6.6,6.6,50,0.00,,,0.00,0,TxWx,2013-01-20 09:24:00,
2013-01-20 03:29:00,20.9,4.0,30.06,NW,311,8.4,8.4,50,0.00,,,0.00,0,TxWx,2013-01-20 09:29:00,
2013-01-20 03:34:00,20.8,4.0,30.07,NW,317,12.6,14.7,51,0.00,,,0.00,0,TxWx,2013-01-20 09:34:00,
2013-01-20 03:39:00,20.7,4.0,30.07,WNW,290,7.8,8.4,50,0.00,,,0.00,0,TxWx,2013-01-20 09:39:00,
2013-01-20 03:45:00,20.6,4.0,30.07,NW,305,9.6,9.6,51,0.00,,,0.00,0,TxWx,2013-01-20 09:45:00,
2013-01-20 03:50:00,20.4,4.0,30.08,NW,319,3.3,3.6,53,0.00,,,0.00,0,TxWx,2013-01-20 09:50:00,
2013-01-20 03:55:00,20.1,5.0,30.08,West,270,4.2,4.5,53,0.00,,,0.00,0,TxWx,2013-01-20 09:55:00,
2013-01-20 04:00:00,19.9,5.0,30.08,WNW,295,9.6,9.6,53,0.00,,,0.00,0,TxWx,2013-01-20 10:00:00,
2013-01-20 04:05:00,19.7,5.0,30.09,West,273,6.6,6.6,54,0.00,,,0.00,0,TxWx,2013-01-20 10:05:00,
2013-01-20 04:11:00,19.6,5.0,30.09,NW,326,4.8,7.5,54,0.00,,,0.00,0,TxWx,2013-01-20 10:11:00,
2013-01-20 04:16:00,19.6,5.0,30.09,NW,313,11.1,11.1,54,0.00,,,0.00,0,TxWx,2013-01-20 10:16:00,
2013-01-20 04:22:00,19.5,4.0,30.09,NW,313,9.9,12.6,54,0.00,,,0.00,0,TxWx,2013-01-20 10:22:00,
2013-01-20 04:27:00,19.2,4.0,30.09,NW,316,8.1,9.0,55,0.00,,,0.00,0,TxWx,2013-01-20 10:27:00,
2013-01-20 04:32:00,19.1,4.0,30.10,WNW,287,4.8,4.8,55,0.00,,,0.00,0,TxWx,2013-01-20 10:32:00,
2013-01-20 04:38:00,19.0,4.0,30.10,NW,319,6.3,6.3,55,0.00,,,0.00,0,TxWx,2013-01-20 10:38:00,
2013-01-20 04:43:00,18.8,4.0,30.10,NW,308,6.6,6.6,55,0.00,,,0.00,0,TxWx,2013-01-20 10:43:00,
2013-01-20 04:48:00,18.7,4.0,30.10,NW,317,5.1,5.4,55,0.00,,,0.00,0,TxWx,2013-01-20 10:48:00,
2013-01-20 04:53:00,18.6,4.0,30.10,NW,309,5.1,5.1,55,0.00,,,0.00,0,TxWx,2013-01-20 10:53:00,
2013-01-20 04:58:00,18.3,4.0,30.11,NW,304,9.9,15.0,55,0.00,,,0.00,0,TxWx,2013-01-20 10:58:00,
2013-01-20 05:03:00,18.1,4.0,30.11,WNW,288,11.4,11.7,56,0.00,,,0.00,0,TxWx,2013-01-20 11:03:00,
2013-01-20 05:08:00,18.0,4.0,30.11,North,359,16.2,16.2,56,0.00,,,0.00,0,TxWx,2013-01-20 11:08:00,
2013-01-20 05:13:00,18.0,4.0,30.12,NW,324,5.4,6.6,57,0.00,,,0.00,0,TxWx,2013-01-20 11:13:00,
2013-01-20 05:19:00,18.1,4.0,30.12,WNW,298,11.4,11.4,57,0.00,,,0.00,0,TxWx,2013-01-20 11:19:00,
2013-01-20 05:24:00,18.2,4.0,30.12,NNW,336,4.5,5.1,57,0.00,,,0.00,0,TxWx,2013-01-20 11:24:00,
2013-01-20 05:29:00,18.1,5.0,30.13,NW,304,5.1,6.9,58,0.00,,,0.00,0,TxWx,2013-01-20 11:29:00,
2013-01-20 05:34:00,17.9,5.0,30.13,NW,312,12.6,14.1,58,0.00,,,0.00,0,TxWx,2013-01-20 11:34:00,
2013-01-20 05:40:00,17.8,5.0,30.14,West,280,4.5,4.5,59,0.00,,,0.00,0,TxWx,2013-01-20 11:40:00,
2013-01-20 05:45:00,17.7,5.0,30.14,West,281,3.3,3.3,58,0.00,,,0.00,0,TxWx,2013-01-20 11:45:00,
2013-01-20 05:50:00,17.6,4.0,30.14,NW,326,6.9,7.5,57,0.00,,,0.00,0,TxWx,2013-01-20 11:50:00,
2013-01-20 05:55:00,17.5,3.0,30.15,WNW,295,13.8,14.4,57,0.00,,,0.00,0,TxWx,2013-01-20 11:55:00,
2013-01-20 06:00:00,17.5,5.0,30.15,NW,308,6.0,6.0,58,0.00,,,0.00,0,TxWx,2013-01-20 12:00:00,
2013-01-20 06:05:00,17.5,4.0,30.15,WNW,290,12.3,12.3,58,0.00,,,0.00,0,TxWx,2013-01-20 12:05:00,
2013-01-20 06:11:00,17.1,4.0,30.15,WNW,290,13.5,14.4,58,0.00,,,0.00,0,TxWx,2013-01-20 12:11:00,
2013-01-20 06:16:00,16.9,4.0,30.16,NW,307,15.6,15.9,59,0.00,,,0.00,0,TxWx,2013-01-20 12:16:00,
2013-01-20 06:21:00,16.9,4.0,30.16,NW,310,6.0,6.3,59,0.00,,,0.00,0,TxWx,2013-01-20 12:21:00,
2013-01-20 06:26:00,16.6,4.0,30.17,West,274,12.3,12.3,59,0.00,,,0.00,0,TxWx,2013-01-20 12:26:00,
2013-01-20 06:31:00,16.5,4.0,30.17,NW,323,7.2,9.3,59,0.00,,,0.00,0,TxWx,2013-01-20 12:31:00,
2013-01-20 06:36:00,16.5,4.0,30.17,NW,304,7.2,7.2,59,0.00,,,0.00,0,TxWx,2013-01-20 12:36:00,
2013-01-20 06:42:00,16.3,3.0,30.17,WNW,292,11.1,13.8,59,0.00,,,0.00,0,TxWx,2013-01-20 12:42:00,
2013-01-20 06:47:00,16.2,3.0,30.18,NW,320,8.1,8.1,58,0.00,,,0.00,0,TxWx,2013-01-20 12:47:00,
2013-01-20 06:52:00,16.2,3.0,30.18,NW,313,5.1,6.0,59,0.00,,,0.00,0,TxWx,2013-01-20 12:52:00,
2013-01-20 06:57:00,15.8,3.0,30.18,NW,307,13.2,13.2,58,0.00,,,0.00,1,TxWx,2013-01-20 12:57:00,
2013-01-20 07:02:00,15.7,3.0,30.19,WNW,295,5.7,5.7,58,0.00,,,0.00,2,TxWx,2013-01-20 13:02:00,
2013-01-20 07:07:00,15.5,2.0,30.19,WNW,291,5.4,5.7,58,0.00,,,0.00,4,TxWx,2013-01-20 13:07:00,
2013-01-20 07:12:00,15.3,2.0,30.19,WNW,293,11.1,12.0,58,0.00,,,0.00,6,TxWx,2013-01-20 13:12:00,
2013-01-20 07:18:00,15.2,2.0,30.19,NW,314,4.8,4.8,58,0.00,,,0.00,10,TxWx,2013-01-20 13:18:00,
2013-01-20 07:23:00,15.1,2.0,30.19,WNW,302,12.3,12.3,59,0.00,,,0.00,22,TxWx,2013-01-20 13:23:00,
2013-01-20 07:28:00,15.2,2.0,30.19,NNW,345,3.3,3.3,59,0.00,,,0.00,37,TxWx,2013-01-20 13:28:00,
2013-01-20 07:33:00,15.1,2.0,30.20,West,280,3.9,3.9,59,0.00,,,0.00,56,TxWx,2013-01-20 13:33:00,
2013-01-20 07:38:00,15.2,2.0,30.21,NW,319,3.3,4.2,58,0.00,,,0.00,116,TxWx,2013-01-20 13:38:00,
2013-01-20 07:43:00,15.2,2.0,30.21,West,269,9.9,9.9,58,0.00,,,0.00,125,TxWx,2013-01-20 13:43:00,
2013-01-20 07:49:00,15.2,2.0,30.22,WNW,292,7.2,7.2,58,0.00,,,0.00,57,TxWx,2013-01-20 13:49:00,
2013-01-20 07:54:00,15.3,2.0,30.22,NW,316,5.4,6.0,58,0.00,,,0.00,71,TxWx,2013-01-20 13:54:00,
2013-01-20 07:59:00,15.1,2.0,30.22,WNW,299,12.0,12.9,58,0.00,,,0.00,177,TxWx,2013-01-20 13:59:00,
2013-01-20 08:04:00,15.3,2.0,30.22,West,274,5.7,5.7,58,0.00,,,0.00,154,TxWx,2013-01-20 14:04:00,
2013-01-20 08:09:00,15.5,2.0,30.23,NNW,330,4.2,4.5,58,0.00,,,0.00,116,TxWx,2013-01-20 14:09:00,
2013-01-20 08:15:00,15.4,1.0,30.23,NW,307,8.1,8.4,57,0.00,,,0.00,247,TxWx,2013-01-20 14:15:00,
2013-01-20 08:20:00,15.4,1.0,30.23,WNW,303,7.5,7.5,55,0.00,,,0.00,187,TxWx,2013-01-20 14:20:00,
2013-01-20 08:25:00,15.6,2.0,30.23,NW,305,6.3,6.9,55,0.00,,,0.00,238,TxWx,2013-01-20 14:25:00,
2013-01-20 08:30:00,15.8,1.0,30.24,NW,315,10.5,10.5,54,0.00,,,0.00,269,TxWx,2013-01-20 14:30:00,
2013-01-20 08:35:00,16.3,1.0,30.24,West,267,6.6,6.9,55,0.00,,,0.00,301,TxWx,2013-01-20 14:35:00,
2013-01-20 08:41:00,16.2,1.0,30.24,NW,325,5.1,7.2,54,0.00,,,0.00,275,TxWx,2013-01-20 14:41:00,
2013-01-20 08:46:00,16.5,1.0,30.24,NW,304,2.1,2.7,54,0.00,,,0.00,287,TxWx,2013-01-20 14:46:00,
2013-01-20 08:51:00,16.3,1.0,30.25,NNW,338,5.1,5.1,54,0.00,,,0.00,286,TxWx,2013-01-20 14:51:00,
2013-01-20 08:56:00,15.9,2.0,30.25,West,268,9.6,9.6,55,0.00,,,0.00,253,TxWx,2013-01-20 14:56:00,
2013-01-20 09:01:00,15.8,2.0,30.25,WNW,292,6.0,6.0,56,0.00,,,0.00,171,TxWx,2013-01-20 15:01:00,
2013-01-20 09:06:00,15.6,2.0,30.25,West,275,8.4,9.6,57,0.00,,,0.00,268,TxWx,2013-01-20 15:06:00,
2013-01-20 09:11:00,16.1,2.0,30.25,NW,324,4.8,4.8,57,0.00,,,0.00,355,TxWx,2013-01-20 15:11:00,
2013-01-20 09:17:00,16.1,2.0,30.25,West,270,8.7,9.9,57,0.00,,,0.00,382,TxWx,2013-01-20 15:17:00,
2013-01-20 09:22:00,16.5,2.0,30.25,NW,317,5.4,5.4,57,0.00,,,0.00,390,TxWx,2013-01-20 15:22:00,
2013-01-20 09:27:00,16.5,2.0,30.25,WNW,298,9.3,9.3,56,0.00,,,0.00,405,TxWx,2013-01-20 15:27:00,
2013-01-20 09:32:00,16.4,2.0,30.25,WNW,282,3.3,3.3,56,0.00,,,0.00,398,TxWx,2013-01-20 15:32:00,
2013-01-20 09:38:00,16.4,2.0,30.26,NW,309,8.7,8.7,56,0.00,,,0.00,425,TxWx,2013-01-20 15:38:00,
2013-01-20 09:43:00,16.5,3.0,30.26,West,260,6.6,8.4,55,0.00,,,0.00,433,TxWx,2013-01-20 15:43:00,
2013-01-20 09:48:00,17.4,3.0,30.26,WNW,294,6.9,6.9,55,0.00,,,0.00,444,TxWx,2013-01-20 15:48:00,
2013-01-20 09:53:00,16.5,2.0,30.26,West,272,7.2,7.8,54,0.00,,,0.00,453,TxWx,2013-01-20 15:53:00,
2013-01-20 09:58:00,17.4,2.0,30.26,NW,310,2.1,2.1,55,0.00,,,0.00,464,TxWx,2013-01-20 15:58:00,
2013-01-20 10:03:00,17.8,3.0,30.26,NW,315,0.9,1.5,54,0.00,,,0.00,471,TxWx,2013-01-20 16:03:00,
2013-01-20 10:09:00,17.6,3.0,30.26,West,265,6.6,6.6,53,0.00,,,0.00,476,TxWx,2013-01-20 16:09:00,
2013-01-20 10:14:00,17.5,2.0,30.25,NNW,334,2.7,2.7,53,0.00,,,0.00,483,TxWx,2013-01-20 16:14:00,
2013-01-20 10:19:00,17.8,3.0,30.25,WNW,287,9.0,11.4,53,0.00,,,0.00,489,TxWx,2013-01-20 16:19:00,
2013-01-20 10:25:00,17.8,3.0,30.25,West,280,5.7,5.7,54,0.00,,,0.00,495,TxWx,2013-01-20 16:25:00,
2013-01-20 10:30:00,18.0,3.0,30.26,NW,319,6.9,7.5,53,0.00,,,0.00,503,TxWx,2013-01-20 16:30:00,
2013-01-20 10:35:00,18.5,3.0,30.26,NW,314,5.7,6.3,52,0.00,,,0.00,509,TxWx,2013-01-20 16:35:00,
2013-01-20 10:40:00,17.7,2.0,30.26,WNW,295,10.5,12.3,52,0.00,,,0.00,509,TxWx,2013-01-20 16:40:00,
2013-01-20 10:45:00,17.7,3.0,30.26,North,351,4.8,5.4,53,0.00,,,0.00,520,TxWx,2013-01-20 16:45:00,
2013-01-20 10:50:00,18.3,2.0,30.26,WNW,297,4.5,4.5,52,0.00,,,0.00,526,TxWx,2013-01-20 16:50:00,
2013-01-20 10:55:00,18.0,2.0,30.25,WNW,301,13.2,13.2,52,0.00,,,0.00,533,TxWx,2013-01-20 16:55:00,
2013-01-20 11:00:00,18.8,3.0,30.25,NNW,341,1.2,1.2,53,0.00,,,0.00,534,TxWx,2013-01-20 17:00:00,
2013-01-20 11:05:00,17.9,2.0,30.25,West,275,4.8,4.8,51,0.00,,,0.00,548,TxWx,2013-01-20 17:05:00,
2013-01-20 11:10:00,19.0,3.0,30.24,NNE,18,13.2,13.2,51,0.00,,,0.00,555,TxWx,2013-01-20 17:10:00,
2013-01-20 11:15:00,18.6,2.0,30.23,NW,318,10.2,10.2,49,0.00,,,0.00,558,TxWx,2013-01-20 17:15:00,
2013-01-20 11:21:00,18.2,1.0,30.23,NW,318,6.3,7.2,50,0.00,,,0.00,555,TxWx,2013-01-20 17:21:00,
2013-01-20 11:26:00,19.3,3.0,30.23,WNW,301,3.6,3.6,51,0.00,,,0.00,563,TxWx,2013-01-20 17:26:00,
2013-01-20 11:31:00,19.4,2.0,30.23,WSW,256,2.4,2.4,50,0.00,,,0.00,562,TxWx,2013-01-20 17:31:00,
2013-01-20 11:36:00,19.6,2.0,30.22,WNW,292,5.7,5.7,48,0.00,,,0.00,564,TxWx,2013-01-20 17:36:00,
2013-01-20 11:42:00,20.2,3.0,30.22,North,356,3.0,3.3,50,0.00,,,0.00,567,TxWx,2013-01-20 17:42:00,
2013-01-20 11:47:00,20.4,2.0,30.23,North,358,6.6,6.6,48,0.00,,,0.00,569,TxWx,2013-01-20 17:47:00,
2013-01-20 11:52:00,20.0,2.0,30.23,West,276,7.8,7.8,48,0.00,,,0.00,569,TxWx,2013-01-20 17:52:00,
2013-01-20 11:57:00,19.7,3.0,30.23,WNW,291,3.0,3.0,49,0.00,,,0.00,563,TxWx,2013-01-20 17:57:00,
2013-01-20 12:02:00,20.4,2.0,30.23,NNW,345,2.7,3.6,48,0.00,,,0.00,528,TxWx,2013-01-20 18:02:00,
2013-01-20 12:07:00,20.2,2.0,30.22,West,266,5.1,6.0,48,0.00,,,0.00,519,TxWx,2013-01-20 18:07:00,
2013-01-20 12:13:00,20.0,2.0,30.22,NNE,23,3.9,4.8,48,0.00,,,0.00,366,TxWx,2013-01-20 18:13:00,
2013-01-20 12:18:00,20.0,3.0,30.23,West,269,3.6,3.6,49,0.00,,,0.00,393,TxWx,2013-01-20 18:18:00,
2013-01-20 12:23:00,20.4,2.0,30.23,WNW,289,2.7,3.3,48,0.00,,,0.00,564,TxWx,2013-01-20 18:23:00,
2013-01-20 12:28:00,20.5,2.0,30.22,NE,44,7.8,7.8,48,0.00,,,0.00,263,TxWx,2013-01-20 18:28:00,
2013-01-20 12:33:00,20.1,2.0,30.22,NNW,331,4.2,4.8,48,0.00,,,0.00,227,TxWx,2013-01-20 18:33:00,
2013-01-20 12:38:00,20.1,2.0,30.22,NW,324,6.3,7.5,48,0.00,,,0.00,393,TxWx,2013-01-20 18:38:00,
2013-01-20 12:44:00,20.4,3.0,30.22,NE,34,2.1,2.1,49,0.00,,,0.00,372,TxWx,2013-01-20 18:44:00,
2013-01-20 12:49:00,20.3,2.0,30.22,WNW,296,3.6,3.6,48,0.00,,,0.00,295,TxWx,2013-01-20 18:49:00,
2013-01-20 12:54:00,20.4,3.0,30.22,WNW,289,2.1,2.1,49,0.00,,,0.00,239,TxWx,2013-01-20 18:54:00,
2013-01-20 12:59:00,20.4,3.0,30.22,NW,324,4.8,5.1,49,0.00,,,0.00,252,TxWx,2013-01-20 18:59:00,
2013-01-20 13:04:00,20.4,2.0,30.22,NW,323,1.2,1.2,48,0.00,,,0.00,182,TxWx,2013-01-20 19:04:00,
2013-01-20 13:09:00,20.0,2.0,30.22,West,267,6.3,6.3,48,0.00,,,0.00,232,TxWx,2013-01-20 19:09:00,
2013-01-20 13:14:00,20.4,2.0,30.21,WNW,292,2.7,3.3,47,0.00,,,0.00,204,TxWx,2013-01-20 19:14:00,
2013-01-20 13:19:00,20.8,3.0,30.21,North,4,0.9,0.9,48,0.00,,,0.00,195,TxWx,2013-01-20 19:19:00,
2013-01-20 13:24:00,20.9,3.0,30.22,NNE,16,5.7,6.3,48,0.00,,,0.00,178,TxWx,2013-01-20 19:24:00,
2013-01-20 13:30:00,20.7,3.0,30.22,West,267,1.5,2.4,48,0.00,,,0.00,195,TxWx,2013-01-20 19:30:00,
2013-01-20 13:35:00,20.5,2.0,30.22,NW,312,6.3,6.3,48,0.00,,,0.00,189,TxWx,2013-01-20 19:35:00,
2013-01-20 13:40:00,20.8,3.0,30.22,West,271,1.8,2.1,48,0.00,,,0.00,246,TxWx,2013-01-20 19:40:00,
2013-01-20 13:45:00,20.7,3.0,30.22,NW,310,3.6,3.9,47,0.00,,,0.00,347,TxWx,2013-01-20 19:45:00,
2013-01-20 13:50:00,21.1,3.0,30.22,NW,308,3.9,3.9,47,0.00,,,0.00,379,TxWx,2013-01-20 19:50:00,
2013-01-20 13:55:00,21.2,2.0,30.22,West,272,9.0,9.0,46,0.00,,,0.00,558,TxWx,2013-01-20 19:55:00,
2013-01-20 14:00:00,21.7,3.0,30.22,NW,310,1.2,1.5,46,0.00,,,0.00,457,TxWx,2013-01-20 20:00:00,
2013-01-20 14:06:00,22.2,4.0,30.22,North,2,0.9,1.2,47,0.00,,,0.00,315,TxWx,2013-01-20 20:06:00,
2013-01-20 14:11:00,21.7,2.0,30.22,North,352,4.8,4.8,44,0.00,,,0.00,272,TxWx,2013-01-20 20:11:00,
2013-01-20 14:16:00,21.3,1.0,30.22,NW,314,7.2,7.2,44,0.00,,,0.00,209,TxWx,2013-01-20 20:16:00,
2013-01-20 14:21:00,21.4,2.0,30.21,NNE,21,5.1,5.1,46,0.00,,,0.00,183,TxWx,2013-01-20 20:21:00,
2013-01-20 14:26:00,21.1,3.0,30.21,NNE,30,4.8,4.8,47,0.00,,,0.00,174,TxWx,2013-01-20 20:26:00,
2013-01-20 14:31:00,21.1,3.0,30.21,NW,307,3.3,3.9,48,0.00,,,0.00,190,TxWx,2013-01-20 20:31:00,
2013-01-20 14:37:00,20.9,3.0,30.21,WSW,241,4.2,4.5,47,0.00,,,0.00,181,TxWx,2013-01-20 20:37:00,
2013-01-20 14:42:00,21.3,3.0,30.21,NW,312,2.7,3.0,47,0.00,,,0.00,161,TxWx,2013-01-20 20:42:00,
2013-01-20 14:47:00,21.4,3.0,30.22,NNE,15,2.4,2.4,48,0.00,,,0.00,160,TxWx,2013-01-20 20:47:00,
2013-01-20 14:52:00,21.5,3.0,30.22,NNW,333,3.0,3.0,46,0.00,,,0.00,141,TxWx,2013-01-20 20:52:00,
2013-01-20 14:57:00,21.3,3.0,30.22,NNE,14,1.5,1.5,47,0.00,,,0.00,152,TxWx,2013-01-20 20:57:00,
2013-01-20 15:02:00,21.7,3.0,30.22,WNW,302,4.2,5.4,46,0.00,,,0.00,161,TxWx,2013-01-20 21:02:00,
2013-01-20 15:08:00,21.6,3.0,30.22,NNW,340,6.3,6.3,45,0.00,,,0.00,141,TxWx,2013-01-20 21:08:00,
2013-01-20 15:13:00,21.6,2.0,30.22,WNW,294,4.8,4.8,44,0.00,,,0.00,126,TxWx,2013-01-20 21:13:00,
2013-01-20 15:18:00,21.7,1.0,30.22,NNW,345,5.4,6.3,42,0.00,,,0.00,121,TxWx,2013-01-20 21:18:00,
2013-01-20 15:23:00,21.5,1.0,30.22,West,269,4.8,5.4,42,0.00,,,0.00,122,TxWx,2013-01-20 21:23:00,
2013-01-20 15:29:00,21.9,1.0,30.21,East,94,0.3,0.6,42,0.00,,,0.00,144,TxWx,2013-01-20 21:29:00,
2013-01-20 15:34:00,21.8,1.0,30.21,NW,307,3.9,4.2,41,0.00,,,0.00,143,TxWx,2013-01-20 21:34:00,
2013-01-20 15:39:00,21.5,1.0,30.21,West,274,5.7,6.0,41,0.00,,,0.00,119,TxWx,2013-01-20 21:39:00,
2013-01-20 15:44:00,21.3,0.0,30.21,West,272,6.9,7.5,42,0.00,,,0.00,78,TxWx,2013-01-20 21:44:00,
2013-01-20 15:49:00,21.4,0.0,30.21,West,264,4.8,5.1,42,0.00,,,0.00,65,TxWx,2013-01-20 21:49:00,
2013-01-20 15:54:00,21.1,0.0,30.22,West,264,6.9,6.9,41,0.00,,,0.00,50,TxWx,2013-01-20 21:54:00,
2013-01-20 16:00:00,21.5,0.0,30.22,NW,310,3.6,3.6,41,0.00,,,0.00,38,TxWx,2013-01-20 22:00:00,
2013-01-20 16:05:00,21.5,1.0,30.21,NW,318,4.2,4.2,41,0.00,,,0.00,40,TxWx,2013-01-20 22:05:00,
2013-01-20 16:10:00,21.3,0.0,30.21,NW,308,4.8,5.7,41,0.00,,,0.00,41,TxWx,2013-01-20 22:10:00,
2013-01-20 16:15:00,21.4,0.0,30.22,WNW,289,3.9,4.2,41,0.00,,,0.00,36,TxWx,2013-01-20 22:15:00,
2013-01-20 16:20:00,21.5,0.0,30.22,NW,305,6.3,7.2,41,0.00,,,0.00,32,TxWx,2013-01-20 22:20:00,
2013-01-20 16:25:00,21.2,-1.0,30.22,NW,306,5.1,6.3,40,0.00,,,0.00,30,TxWx,2013-01-20 22:25:00,
2013-01-20 16:31:00,21.1,0.0,30.22,WNW,296,5.1,6.3,41,0.00,,,0.00,23,TxWx,2013-01-20 22:31:00,
2013-01-20 16:36:00,21.2,0.0,30.22,West,281,3.6,4.5,41,0.00,,,0.00,12,TxWx,2013-01-20 22:36:00,
2013-01-20 16:41:00,21.1,0.0,30.22,WNW,303,4.2,4.2,41,0.00,,,0.00,5,TxWx,2013-01-20 22:41:00,
2013-01-20 16:46:00,21.4,0.0,30.22,West,265,0.6,0.6,41,0.00,,,0.00,2,TxWx,2013-01-20 22:46:00,
2013-01-20 16:51:00,21.1,0.0,30.22,WNW,295,9.0,9.9,42,0.00,,,0.00,1,TxWx,2013-01-20 22:51:00,
2013-01-20 16:56:00,21.1,1.0,30.23,NW,304,4.5,4.5,43,0.00,,,0.00,0,TxWx,2013-01-20 22:56:00,
2013-01-20 17:02:00,20.8,1.0,30.22,West,275,7.8,8.4,44,0.00,,,0.00,0,TxWx,2013-01-20 23:02:00,
2013-01-20 17:07:00,20.7,1.0,30.23,West,265,4.2,5.4,44,0.00,,,0.00,0,TxWx,2013-01-20 23:07:00,
2013-01-20 17:12:00,20.6,2.0,30.23,West,278,7.5,9.0,45,0.00,,,0.00,0,TxWx,2013-01-20 23:12:00,
2013-01-20 17:17:00,20.6,2.0,30.23,West,274,5.1,6.0,45,0.00,,,0.00,0,TxWx,2013-01-20 23:17:00,
2013-01-20 17:23:00,20.6,2.0,30.22,NW,322,7.5,7.5,46,0.00,,,0.00,0,TxWx,2013-01-20 23:23:00,
2013-01-20 17:28:00,20.5,3.0,30.22,WNW,296,3.3,3.3,47,0.00,,,0.00,0,TxWx,2013-01-20 23:28:00,
2013-01-20 17:33:00,20.4,2.0,30.22,West,262,7.2,7.5,47,0.00,,,0.00,0,TxWx,2013-01-20 23:33:00,
2013-01-20 17:38:00,20.4,2.0,30.22,NW,324,6.6,7.8,47,0.00,,,0.00,0,TxWx,2013-01-20 23:38:00,
2013-01-20 17:43:00,20.4,2.0,30.22,West,280,4.8,5.1,47,0.00,,,0.00,0,TxWx,2013-01-20 23:43:00,
2013-01-20 17:49:00,20.2,2.0,30.22,West,266,6.3,7.2,47,0.00,,,0.00,0,TxWx,2013-01-20 23:49:00,
2013-01-20 17:54:00,20.3,2.0,30.22,West,280,4.2,5.1,47,0.00,,,0.00,0,TxWx,2013-01-20 23:54:00,
2013-01-20 17:59:00,20.2,2.0,30.22,West,272,7.8,7.8,47,0.00,,,0.00,0,TxWx,2013-01-20 23:59:00,
2013-01-20 18:04:00,20.1,2.0,30.22,WSW,250,6.9,8.1,48,0.00,,,0.00,0,TxWx,2013-01-21 00:04:00,
2013-01-20 18:09:00,20.1,2.0,30.22,NW,308,6.0,6.3,48,0.00,,,0.00,0,TxWx,2013-01-21 00:09:00,
2013-01-20 18:14:00,20.1,2.0,30.22,West,265,7.2,7.2,48,0.00,,,0.00,0,TxWx,2013-01-21 00:14:00,
2013-01-20 18:20:00,20.1,2.0,30.22,West,277,4.5,4.5,48,0.00,,,0.00,0,TxWx,2013-01-21 00:20:00,
2013-01-20 18:25:00,20.0,2.0,30.22,West,259,5.4,5.7,48,0.00,,,0.00,0,TxWx,2013-01-21 00:25:00,
2013-01-20 18:30:00,19.9,2.0,30.22,West,267,7.2,7.2,48,0.00,,,0.00,0,TxWx,2013-01-21 00:30:00,
2013-01-20 18:35:00,19.8,2.0,30.22,WNW,301,9.3,9.3,48,0.00,,,0.00,0,TxWx,2013-01-21 00:35:00,
2013-01-20 18:40:00,19.6,3.0,30.22,WSW,249,9.3,10.2,49,0.00,,,0.00,0,TxWx,2013-01-21 00:40:00,
2013-01-20 18:45:00,19.7,3.0,30.22,WNW,287,3.9,3.9,49,0.00,,,0.00,0,TxWx,2013-01-21 00:45:00,
2013-01-20 18:51:00,19.5,3.0,30.22,WNW,287,6.0,8.1,50,0.00,,,0.00,0,TxWx,2013-01-21 00:51:00,
2013-01-20 18:56:00,19.4,2.0,30.22,WNW,293,9.9,11.4,50,0.00,,,0.00,0,TxWx,2013-01-21 00:56:00,
2013-01-20 19:01:00,19.3,2.0,30.22,West,260,9.3,9.9,50,0.00,,,0.00,0,TxWx,2013-01-21 01:01:00,
2013-01-20 19:06:00,19.2,2.0,30.22,West,267,7.2,8.1,50,0.00,,,0.00,0,TxWx,2013-01-21 01:06:00,
2013-01-20 19:11:00,19.0,2.0,30.22,West,275,9.6,10.2,50,0.00,,,0.00,0,TxWx,2013-01-21 01:11:00,
2013-01-20 19:17:00,19.0,2.0,30.22,WNW,298,6.0,6.0,49,0.00,,,0.00,0,TxWx,2013-01-21 01:17:00,
2013-01-20 19:22:00,18.9,2.0,30.21,West,260,10.2,10.2,49,0.00,,,0.00,0,TxWx,2013-01-21 01:22:00,
2013-01-20 19:27:00,18.8,2.0,30.21,West,270,7.8,7.8,49,0.00,,,0.00,0,TxWx,2013-01-21 01:27:00,
2013-01-20 19:32:00,18.8,2.0,30.22,WNW,283,10.8,10.8,50,0.00,,,0.00,0,TxWx,2013-01-21 01:32:00,
2013-01-20 19:37:00,18.7,2.0,30.22,West,281,11.4,11.7,50,0.00,,,0.00,0,TxWx,2013-01-21 01:37:00,
2013-01-20 19:43:00,18.6,2.0,30.21,West,262,9.3,9.3,50,0.00,,,0.00,0,TxWx,2013-01-21 01:43:00,
2013-01-20 19:48:00,18.7,2.0,30.21,NW,313,6.0,7.5,50,0.00,,,0.00,0,TxWx,2013-01-21 01:48:00,
2013-01-20 19:53:00,18.6,2.0,30.22,West,265,10.2,10.5,50,0.00,,,0.00,0,TxWx,2013-01-21 01:53:00,
2013-01-20 19:58:00,18.6,3.0,30.21,WNW,293,4.5,6.3,51,0.00,,,0.00,0,TxWx,2013-01-21 01:58:00,
2013-01-20 20:03:00,18.6,3.0,30.21,West,269,7.8,7.8,51,0.00,,,0.00,0,TxWx,2013-01-21 02:03:00,
2013-01-20 20:09:00,18.5,3.0,30.20,West,263,6.6,6.6,51,0.00,,,0.00,0,TxWx,2013-01-21 02:09:00,
2013-01-20 20:14:00,18.5,1.0,30.20,WNW,294,3.3,5.1,50,0.00,,,0.00,0,TxWx,2013-01-21 02:14:00,
2013-01-20 20:19:00,18.2,1.0,30.20,NW,311,8.1,8.4,50,0.00,,,0.00,0,TxWx,2013-01-21 02:19:00,
2013-01-20 20:24:00,18.3,2.0,30.20,West,262,7.5,7.5,51,0.00,,,0.00,0,TxWx,2013-01-21 02:24:00,
2013-01-20 20:29:00,18.2,2.0,30.20,West,266,7.8,7.8,51,0.00,,,0.00,0,TxWx,2013-01-21 02:29:00,
2013-01-20 20:34:00,18.2,2.0,30.20,WNW,301,6.6,6.6,51,0.00,,,0.00,0,TxWx,2013-01-21 02:34:00,
2013-01-20 20:40:00,18.0,2.0,30.20,WNW,291,9.0,9.0,51,0.00,,,0.00,0,TxWx,2013-01-21 02:40:00,
2013-01-20 20:45:00,18.0,2.0,30.20,WSW,254,7.2,7.2,51,0.00,,,0.00,0,TxWx,2013-01-21 02:45:00,
2013-01-20 20:50:00,18.0,2.0,30.20,West,269,4.5,4.8,51,0.00,,,0.00,0,TxWx,2013-01-21 02:50:00,
2013-01-20 20:55:00,18.0,2.0,30.20,West,277,7.5,7.5,51,0.00,,,0.00,0,TxWx,2013-01-21 02:55:00,
2013-01-20 21:00:00,17.9,2.0,30.20,WNW,300,3.9,4.2,51,0.00,,,0.00,0,TxWx,2013-01-21 03:00:00,
2013-01-20 21:05:00,17.9,2.0,30.20,NW,326,5.1,6.0,52,0.00,,,0.00,0,TxWx,2013-01-21 03:05:00,
2013-01-20 21:10:00,17.9,2.0,30.20,West,277,6.0,6.0,52,0.00,,,0.00,0,TxWx,2013-01-21 03:10:00,
2013-01-20 21:16:00,17.7,2.0,30.20,West,280,9.3,9.3,52,0.00,,,0.00,0,TxWx,2013-01-21 03:16:00,
2013-01-20 21:21:00,17.7,2.0,30.20,WNW,298,3.3,3.6,52,0.00,,,0.00,0,TxWx,2013-01-21 03:21:00,
2013-01-20 21:26:00,17.6,2.0,30.20,West,272,5.1,6.0,52,0.00,,,0.00,0,TxWx,2013-01-21 03:26:00,
2013-01-20 21:31:00,17.7,3.0,30.19,WNW,293,3.3,3.9,53,0.00,,,0.00,0,TxWx,2013-01-21 03:31:00,
2013-01-20 21:36:00,17.7,3.0,30.19,West,278,8.1,8.1,54,0.00,,,0.00,0,TxWx,2013-01-21 03:36:00,
2013-01-20 21:41:00,17.5,2.0,30.19,West,274,4.8,4.8,53,0.00,,,0.00,0,TxWx,2013-01-21 03:41:00,
2013-01-20 21:46:00,17.4,2.0,30.19,West,267,9.0,10.5,53,0.00,,,0.00,0,TxWx,2013-01-21 03:46:00,
2013-01-20 21:52:00,17.4,2.0,30.19,WNW,286,8.7,8.7,54,0.00,,,0.00,0,TxWx,2013-01-21 03:52:00,
2013-01-20 21:57:00,17.5,2.0,30.18,West,263,5.4,5.7,54,0.00,,,0.00,0,TxWx,2013-01-21 03:57:00,
2013-01-20 22:02:00,17.6,3.0,30.18,NW,320,3.0,3.3,55,0.00,,,0.00,0,TxWx,2013-01-21 04:02:00,
2013-01-20 22:07:00,17.4,2.0,30.18,WNW,286,7.8,9.0,55,0.00,,,0.00,0,TxWx,2013-01-21 04:07:00,
2013-01-20 22:12:00,17.4,2.0,30.18,West,259,4.2,4.2,55,0.00,,,0.00,0,TxWx,2013-01-21 04:12:00,
2013-01-20 22:18:00,17.5,4.0,30.18,West,271,5.7,6.9,56,0.00,,,0.00,0,TxWx,2013-01-21 04:18:00,
2013-01-20 22:23:00,17.7,3.0,30.18,NW,307,4.5,5.4,54,0.00,,,0.00,0,TxWx,2013-01-21 04:23:00,
2013-01-20 22:28:00,17.6,3.0,30.18,NNW,328,9.3,11.4,53,0.00,,,0.00,0,TxWx,2013-01-21 04:28:00,
2013-01-20 22:33:00,17.6,2.0,30.18,NW,307,4.8,4.8,51,0.00,,,0.00,0,TxWx,2013-01-21 04:33:00,
2013-01-20 22:38:00,17.6,2.0,30.18,WNW,292,2.4,2.4,51,0.00,,,0.00,0,TxWx,2013-01-21 04:38:00,
2013-01-20 22:43:00,17.5,1.0,30.17,NW,305,8.1,8.4,50,0.00,,,0.00,0,TxWx,2013-01-21 04:43:00,
2013-01-20 22:49:00,17.4,1.0,30.18,WSW,249,6.3,6.3,51,0.00,,,0.00,0,TxWx,2013-01-21 04:49:00,
2013-01-20 22:54:00,17.4,1.0,30.17,WNW,297,7.2,7.2,51,0.00,,,0.00,0,TxWx,2013-01-21 04:54:00,
2013-01-20 22:59:00,17.3,1.0,30.18,West,278,8.1,8.1,51,0.00,,,0.00,0,TxWx,2013-01-21 04:59:00,
2013-01-20 23:00:00,17.3,1.0,30.17,West,280,7.5,7.5,51,0.00,,,0.00,0,TxWx,2013-01-21 05:00:00,
2013-01-20 23:01:00,17.2,1.0,30.17,WSW,246,8.7,10.2,51,0.00,,,0.00,0,TxWx,2013-01-21 05:01:00,
2013-01-20 23:03:00,17.4,1.0,30.18,NW,315,4.2,4.2,52,0.00,,,0.00,0,TxWx,2013-01-21 05:03:00,
2013-01-20 23:08:00,17.3,1.0,30.18,WNW,301,7.5,7.5,51,0.00,,,0.00,0,TxWx,2013-01-21 05:08:00,
2013-01-20 23:13:00,17.1,1.0,30.17,WNW,286,8.1,8.1,51,0.00,,,0.00,0,TxWx,2013-01-21 05:13:00,
2013-01-20 23:18:00,17.0,1.0,30.17,West,273,6.6,6.6,52,0.00,,,0.00,0,TxWx,2013-01-21 05:18:00,
2013-01-20 23:23:00,16.8,1.0,30.17,West,278,8.1,8.1,51,0.00,,,0.00,0,TxWx,2013-01-21 05:23:00,
2013-01-20 23:29:00,16.8,1.0,30.17,West,276,5.7,5.7,51,0.00,,,0.00,0,TxWx,2013-01-21 05:29:00,
2013-01-20 23:34:00,16.9,1.0,30.17,West,268,3.9,3.9,52,0.00,,,0.00,0,TxWx,2013-01-21 05:34:00,
2013-01-20 23:39:00,16.9,1.0,30.16,WNW,296,4.5,5.1,52,0.00,,,0.00,0,TxWx,2013-01-21 05:39:00,
2013-01-20 23:44:00,16.8,2.0,30.16,West,281,3.0,3.0,53,0.00,,,0.00,0,TxWx,2013-01-21 05:44:00,
2013-01-20 23:49:00,16.9,2.0,30.16,West,281,4.2,4.2,53,0.00,,,0.00,0,TxWx,2013-01-21 05:49:00,
2013-01-20 23:55:00,16.6,1.0,30.16,WNW,303,9.6,9.6,52,0.00,,,0.00,0,TxWx,2013-01-21 05:55:00,